Weather History for Rochester, NY

Change the Weather History Date:

Tuesday, November 12, 2013

  Actual Average Record
Temperature  
Mean Temperature 29 °F 42 °F  
Max Temperature 33 °F 50 °F 72 °F (1982)
Min Temperature 25 °F 34 °F 21 °F (1983)
Degree Days  
Heating Degree Days 36 23  
Month to date heating degree days 259 255  
Since 1 July heating degree days 814 888  
Cooling Degree Days 0 0  
Month to date cooling degree days 0 0  
Year to date cooling degree days 660 539  
Moisture  
Dew Point 21 °F    
Average Humidity 70    
Maximum Humidity 81    
Minimum Humidity 59    
Precipitation  
Precipitation 0.01 in 0.09 in 1.46 in (1879)
Month to date precipitation 1.44 1.13  
Year to date precipitation 32.38 29.83  
Snow  
Snow 0.40 in 0.20 in 5.00 in (1977)
Month to date snowfall 1.8 1.7  
Since 1 July snowfall 1.8 1.8  
Since 1 September snowfall 1.8 1.8  
Snow Depth 1.00 in    
Sea Level Pressure  
Sea Level Pressure 30.31 in    
Wind  
Wind Speed 10 mph (NW)    
Max Wind Speed 21 mph    
Max Gust Speed 26 mph    
Visibility 8 miles    
Events Snow    
T = Trace of Precipitation, MM = Missing Value Source: NWS Daily Summary

Daily Weather History Graph

Daily Weather History Graph

Search for Another Location

Airport:

Trip Planner

Search our weather history database for the weather conditions in past years. The results will help you decide how hot, cold, wet, or windy it might be!

Date:

Astronomy

Nov. 12, 2013 Rise Set
Actual Time 6:59 AM EST 4:49 PM EST
Civil Twilight 6:29 AM EST 5:19 PM EST
Nautical Twilight 5:55 AM EST 5:54 PM EST
Astronomical Twilight 5:21 AM EST 6:27 PM EST
Moon 2:09 PM EST (11/12) 1:39 AM EST (11/12)
Length of Visible Light 10h 50m
Length of Day
9h 49m
Waxing Gibbous, 76% of the Moon is Illuminated
Nov 12
Waxing Gibbous
Nov 17
Full
Nov 25
Last Quarter
Dec 2
New
Dec 9
First Quarter

Hourly Weather History & Observations

Time (EST) Temp. Windchill Dew Point Humidity Pressure Visibility Wind Dir Wind Speed Gust Speed Precip Events Conditions
12:54 AM 30.0 °F 22.4 °F 21.0 °F 69% 30.14 in 10.0 mi NW 8.1 mph - N/A   Overcast
1:54 AM 30.0 °F 21.7 °F 21.0 °F 69% 30.16 in 10.0 mi NW 9.2 mph - N/A   Overcast
2:54 AM 28.9 °F 21.1 °F 21.0 °F 72% 30.18 in 10.0 mi NW 8.1 mph - N/A   Overcast
3:54 AM 28.0 °F 18.6 °F 19.9 °F 72% 30.20 in 10.0 mi WNW 10.4 mph - N/A   Mostly Cloudy
4:54 AM 26.1 °F 18.4 °F 19.0 °F 75% 30.23 in 10.0 mi WNW 6.9 mph - N/A   Scattered Clouds
5:54 AM 25.0 °F 15.5 °F 18.0 °F 75% 30.25 in 10.0 mi NW 9.2 mph - N/A   Scattered Clouds
6:51 AM 26.6 °F 15.7 °F 19.4 °F 74% 30.24 in 10.0 mi NW 12.7 mph 18.4 mph N/A   Mostly Cloudy
6:54 AM 26.1 °F 15.6 °F 19.0 °F 75% 30.28 in 10.0 mi NW 11.5 mph - N/A   Mostly Cloudy
7:54 AM 26.1 °F 15.6 °F 19.0 °F 75% 30.31 in 10.0 mi NW 11.5 mph - N/A   Mostly Cloudy
8:54 AM 27.0 °F 15.6 °F 19.0 °F 72% 30.33 in 10.0 mi NW 13.8 mph - N/A   Overcast
9:54 AM 28.9 °F 18.6 °F 19.9 °F 69% 30.34 in 10.0 mi NW 12.7 mph - N/A   Overcast
10:54 AM 30.0 °F 19.1 °F 19.9 °F 66% 30.35 in 10.0 mi NW 15.0 mph 21.9 mph N/A   Mostly Cloudy
11:54 AM 32.0 °F 21.2 °F 19.9 °F 61% 30.34 in 10.0 mi NW 16.1 mph 21.9 mph N/A   Mostly Cloudy
12:08 PM 32.0 °F 21.6 °F 17.6 °F 55% 30.30 in 10.0 mi NW 15.0 mph 21.9 mph N/A   Scattered Clouds
12:54 PM 33.1 °F 24.9 °F 21.9 °F 64% 30.33 in 10.0 mi NNW 10.4 mph 21.9 mph 0.00 in Snow Light Snow
1:37 PM 30.2 °F 21.3 °F 23.0 °F 75% 30.30 in 1.0 mi WNW 10.4 mph 23.0 mph 0.00 in Snow Light Snow
1:52 PM 30.2 °F 22.6 °F 24.8 °F 80% 30.30 in 7.0 mi WNW 8.1 mph - 0.00 in Snow Light Snow
1:54 PM 30.9 °F 21.2 °F 24.1 °F 76% 30.33 in 8.0 mi NW 12.7 mph - 0.00 in Snow Light Snow
2:15 PM 30.2 °F 19.3 °F 24.8 °F 80% 30.30 in 1.5 mi WNW 15.0 mph 21.9 mph 0.00 in Snow Light Snow
2:26 PM 30.2 °F 21.3 °F 24.8 °F 80% 30.30 in 7.0 mi WNW 10.4 mph - 0.00 in Snow Light Snow
2:41 PM 30.2 °F 19.8 °F 23.0 °F 75% 30.30 in 2.0 mi WNW 13.8 mph 17.3 mph 0.00 in Snow Light Snow
2:54 PM 30.9 °F 22.2 °F 24.1 °F 76% 30.33 in 5.0 mi WNW 10.4 mph 20.7 mph 0.00 in Snow Light Snow
3:54 PM 30.9 °F 22.8 °F 19.9 °F 64% 30.35 in 9.0 mi NW 9.2 mph - 0.00 in Snow Light Snow
4:54 PM 30.0 °F 20.0 °F 17.1 °F 59% 30.35 in 10.0 mi NW 12.7 mph 20.7 mph 0.00 in   Mostly Cloudy
5:54 PM 28.0 °F 16.5 °F 21.9 °F 78% 30.37 in 10.0 mi NW 15.0 mph 20.7 mph N/A   Mostly Cloudy
6:54 PM 28.0 °F 20.0 °F 21.9 °F 78% 30.38 in 10.0 mi NNW 8.1 mph - 0.00 in   Mostly Cloudy
7:54 PM 28.0 °F 20.0 °F 19.9 °F 72% 30.39 in 10.0 mi NW 8.1 mph - 0.00 in   Mostly Cloudy
8:54 PM 28.9 °F 20.4 °F 18.0 °F 64% 30.40 in 10.0 mi NW 9.2 mph - N/A   Overcast
9:54 PM 27.0 °F 18.0 °F 19.9 °F 75% 30.40 in 7.0 mi NW 9.2 mph - 0.00 in Snow Light Snow
10:09 PM 26.6 °F 19.1 °F 21.2 °F 80% 30.37 in 2.0 mi NW 6.9 mph - 0.00 in Snow Light Snow
10:35 PM 26.6 °F 19.1 °F 23.0 °F 86% 30.37 in 4.0 mi West 6.9 mph - 0.00 in Snow Light Snow
10:47 PM 26.6 °F 19.1 °F 21.2 °F 80% 30.38 in 2.0 mi WNW 6.9 mph - 0.01 in Snow Light Snow
10:54 PM 26.1 °F 17.6 °F 21.9 °F 84% 30.41 in 2.0 mi West 8.1 mph - 0.01 in Snow Light Snow
11:26 PM 26.6 °F 18.2 °F 23.0 °F 86% 30.38 in 4.0 mi WNW 8.1 mph - 0.00 in Snow Light Snow
11:54 PM 25.0 °F 18.1 °F 21.0 °F 85% 30.41 in 8.0 mi NW 5.8 mph - 0.00 in Snow Light Snow